GW3294 Weather Reports


Display with metric or nautical units.
time (UTC)temp
F
wind
direction
speed
MPH
gust
MPH
rain 1hr
in
rain 24hr
in
rain mn
in
humidity
%
barometer
mb
20260508212557 79 202 1.0 6.0 0.00 0.00 0.00 42 1010.9
20260508212054 78 162 3.0 6.0 0.00 0.00 0.00 42 1011.1
20260508211549 78 337 2.0 3.0 0.00 0.00 0.00 47 1011.2
20260508211045 77 246 2.0 4.0 0.00 0.00 0.00 46 1011.3
20260508210542 76 269 1.0 3.0 0.00 0.00 0.00 47 1011.3
20260508210040 76 255 0.0 4.0 0.00 0.00 0.00 44 1011.5
20260508205536 76 279 3.0 4.0 0.00 0.00 0.00 47 1011.4
20260508205033 76 258 1.0 4.0 0.00 0.00 0.00 45 1011.4
20260508204530 78 139 1.0 4.0 0.00 0.00 0.00 43 1011.7
20260508204025 77 208 3.0 5.0 0.00 0.00 0.00 44 1011.7
20260508203521 76 279 6.0 7.0 0.00 0.00 0.00 46 1011.6
20260508203018 77 267 2.0 5.0 0.00 0.00 0.00 46 1011.9
20260508202515 78 113 2.0 9.0 0.00 0.00 0.00 44 1011.8
20260508202012 77 260 2.0 7.0 0.00 0.00 0.00 46 1012.0
20260508201508 78 246 2.0 3.0 0.00 0.00 0.00 44 1011.9
20260508201005 77 137 1.0 4.0 0.00 0.00 0.00 48 1012.0
20260508200502 76 272 3.0 5.0 0.00 0.00 0.00 49 1012.1
20260508195956 75 132 3.0 6.0 0.00 0.00 0.00 48 1012.2
20260508195455 75 224 4.0 11.0 0.00 0.00 0.00 47 1012.2
20260508194950 75 310 1.0 3.0 0.00 0.00 0.00 55 1012.2
20260508194448 76 249 2.0 3.0 0.00 0.00 0.00 54 1012.0
20260508193945 75 247 2.0 4.0 0.00 0.00 0.00 49 1012.2
20260508193441 75 257 3.0 3.0 0.00 0.00 0.00 51 1012.2
20260508192938 75 256 2.0 4.0 0.00 0.00 0.00 51 1012.3
20260508192435 76 181 1.0 6.0 0.00 0.00 0.00 50 1012.3
20260508191932 75 55 2.0 5.0 0.00 0.00 0.00 53 1012.2
20260508191429 74 335 3.0 4.0 0.00 0.00 0.00 51 1012.2
20260508190926 73 177 1.0 4.0 0.00 0.00 0.00 54 1012.3
20260508190423 71 296 2.0 3.0 0.00 0.00 0.00 57 1012.3
20260508185919 72 242 0.0 3.0 0.00 0.00 0.00 53 1012.1
20260508185417 72 252 2.0 4.0 0.00 0.00 0.00 54 1012.5
20260508184914 71 230 0.0 2.0 0.00 0.00 0.00 57 1012.4
20260508184411 70 206 0.0 4.0 0.00 0.00 0.00 56 1012.5
20260508183908 70 256 0.0 5.0 0.00 0.00 0.00 54 1012.7
20260508183404 71 265 2.0 5.0 0.00 0.00 0.00 52 1012.4
20260508182859 72 252 2.0 7.0 0.00 0.00 0.00 53 1012.6
20260508182357 71 25 0.0 3.0 0.00 0.00 0.00 57 1012.8
20260508181852 69 135 2.0 4.0 0.00 0.00 0.00 58 1012.7
20260508181349 69 148 3.0 3.0 0.00 0.00 0.00 58 1012.8
20260508180846 69 257 2.0 4.0 0.00 0.00 0.00 59 1013.1
20260508180343 69 240 0.0 3.0 0.00 0.00 0.00 57 1013.1
20260508175839 68 175 0.0 2.0 0.00 0.00 0.00 59 1012.8
20260508175336 68 249 0.0 2.0 0.00 0.00 0.00 59 1012.9
20260508174834 68 41 0.0 5.0 0.00 0.00 0.00 58 1013.2
20260508174331 68 278 2.0 5.0 0.00 0.00 0.00 57 1013.4
20260508173827 68 290 0.0 3.0 0.00 0.00 0.00 57 1013.5
20260508173325 68 226 2.0 3.0 0.00 0.00 0.00 55 1013.3
20260508172820 68 266 1.0 3.0 0.00 0.00 0.00 57 1013.4
20260508172318 67 132 0.0 5.0 0.00 0.00 0.00 58 1013.6
20260508171814 66 256 0.0 2.0 0.00 0.00 0.00 62 1013.8
20260508171310 66 118 2.0 3.0 0.00 0.00 0.00 59 1013.7
20260508170807 65 318 0.0 2.0 0.00 0.00 0.00 61 1013.8
20260508170306 65 156 0.0 2.0 0.00 0.00 0.00 63 1013.8
20260508165801 65 224 1.0 3.0 0.00 0.00 0.00 62 1013.9
20260508165259 65 189 1.0 5.0 0.00 0.00 0.00 61 1014.1
20260508164755 65 244 3.0 4.0 0.00 0.00 0.00 63 1013.9
20260508164252 65 124 0.0 1.0 0.00 0.00 0.00 64 1014.2
20260508163750 64 197 1.0 4.0 0.00 0.00 0.00 65 1014.4
20260508163247 64 173 0.0 2.0 0.00 0.00 0.00 66 1014.5
20260508162742 63 326 0.0 0.0 0.00 0.00 0.00 67 1014.9
20260508162239 63 7 1.0 2.0 0.00 0.00 0.00 66 1014.7
20260508161731 64 144 0.0 2.0 0.00 0.00 0.00 64 1014.5
20260508161228 64 29 0.0 3.0 0.00 0.00 0.00 64 1014.7
20260508160726 63 141 1.0 3.0 0.00 0.00 0.00 64 1014.5
20260508160225 63 167 1.0 4.0 0.00 0.00 0.00 64 1014.7
20260508155720 63 325 1.0 6.0 0.00 0.00 0.00 64 1014.8
20260508155218 63 179 2.0 3.0 0.00 0.00 0.00 64 1014.7
20260508154714 63 278 1.0 5.0 0.00 0.00 0.00 65 1014.7
20260508154212 62 101 1.0 9.0 0.00 0.00 0.00 64 1014.8
20260508153708 62 236 2.0 4.0 0.00 0.00 0.00 65 1014.9
20260508153206 62 146 1.0 4.0 0.00 0.00 0.00 66 1015.0
20260508152702 62 38 0.0 5.0 0.00 0.00 0.00 68 1015.0
20260508152158 62 183 2.0 7.0 0.00 0.00 0.00 66 1014.6
20260508151654 62 289 1.0 3.0 0.00 0.00 0.00 68 1014.6
20260508151151 62 213 1.0 7.0 0.00 0.00 0.00 65 1014.8
20260508150648 62 234 2.0 3.0 0.00 0.00 0.00 68 1015.2
20260508150145 62 88 0.0 4.0 0.00 0.00 0.00 66 1015.1
20260508145641 61 127 2.0 4.0 0.00 0.00 0.00 66 1015.1
20260508145137 61 189 4.0 7.0 0.00 0.00 0.00 66 1015.6
20260508144635 61 110 2.0 3.0 0.00 0.00 0.00 66 1015.6
20260508144132 61 245 3.0 8.0 0.00 0.00 0.00 65 1015.6
20260508143630 61 135 3.0 7.0 0.00 0.00 0.00 65 1015.9
20260508143126 62 163 3.0 5.0 0.00 0.00 0.00 64 1015.9
20260508142622 62 243 0.0 5.0 0.00 0.00 0.00 64 1015.8
20260508142119 63 282 1.0 6.0 0.00 0.00 0.00 64 1016.0
20260508141616 63 191 3.0 6.0 0.00 0.00 0.00 62 1016.0
20260508141114 63 160 5.0 10.0 0.00 0.00 0.00 60 1015.5
20260508140611 64 162 5.0 8.0 0.00 0.00 0.00 62 1015.4
20260508140108 64 268 4.0 9.0 0.00 0.00 0.00 60 1015.2
20260508135603 63 171 3.0 6.0 0.00 0.00 0.00 61 1015.4
20260508135059 62 243 0.0 7.0 0.00 0.00 0.00 63 1015.6
20260508134556 62 171 2.0 4.0 0.00 0.00 0.00 67 1015.4
20260508134053 61 279 1.0 4.0 0.00 0.00 0.00 68 1015.5
20260508133549 60 285 2.0 4.0 0.00 0.00 0.00 69 1015.2
20260508133047 60 176 3.0 5.0 0.00 0.00 0.00 68 1015.6
20260508132545 59 163 1.0 2.0 0.00 0.00 0.00 71 1015.5
20260508132041 59 116 3.0 6.0 0.00 0.00 0.00 70 1015.4
20260508131537 58 227 3.0 4.0 0.00 0.00 0.00 71 1015.2
20260508131034 57 224 2.0 4.0 0.00 0.00 0.00 73 1015.5
20260508130531 57 63 0.0 4.0 0.00 0.00 0.00 74 1015.2
20260508130027 57 116 0.0 3.0 0.00 0.00 0.00 76 1015.5
20260508125523 55 118 3.0 3.0 0.00 0.00 0.00 78 1015.6
20260508125021 54 119 0.0 3.0 0.00 0.00 0.00 80 1015.5
20260508124518 53 109 2.0 2.0 0.00 0.00 0.00 84 1015.5
20260508124015 53 75 1.0 3.0 0.00 0.00 0.00 84 1015.5
20260508123514 53 174 0.0 2.0 0.00 0.00 0.00 82 1015.4
20260508123010 52 129 2.0 3.0 0.00 0.00 0.00 84 1015.1
20260508122507 51 134 2.0 3.0 0.00 0.00 0.00 87 1015.4
20260508122004 50 75 0.0 3.0 0.00 0.00 0.00 87 1015.6
20260508121502 49 82 1.0 2.0 0.00 0.00 0.00 89 1015.2
20260508121000 49 74 1.0 3.0 0.00 0.00 0.00 90 1015.5
20260508120457 48 130 0.0 3.0 0.00 0.00 0.00 92 1015.2
20260508115955 48 127 1.0 3.0 0.00 0.00 0.00 93 1015.0
20260508115453 47 55 2.0 3.0 0.00 0.00 0.00 93 1015.4
20260508114949 47 89 1.0 3.0 0.00 0.00 0.00 92 1015.4
20260508114446 47 71 1.0 2.0 0.00 0.00 0.00 92 1015.2
20260508113942 47 120 3.0 3.0 0.00 0.00 0.00 92 1015.5
20260508113440 47 112 3.0 4.0 0.00 0.00 0.00 91 1015.2
20260508112937 47 108 3.0 3.0 0.00 0.00 0.00 90 1015.1
20260508112434 47 112 1.0 4.0 0.00 0.00 0.00 90 1015.0
20260508111930 47 116 0.0 3.0 0.00 0.00 0.00 89 1015.4
20260508111427 47 129 1.0 3.0 0.00 0.00 0.00 88 1015.4
20260508110925 47 84 0.0 3.0 0.00 0.00 0.00 89 1015.0
20260508110422 47 109 0.0 3.0 0.00 0.00 0.00 89 1015.0
20260508105921 47 107 1.0 3.0 0.00 0.00 0.00 89 1015.0
20260508105418 47 121 2.0 3.0 0.00 0.00 0.00 90 1015.0
20260508104915 46 115 2.0 3.0 0.00 0.00 0.00 90 1015.0
20260508104413 47 123 3.0 4.0 0.00 0.00 0.00 89 1015.1
20260508103910 47 103 1.0 4.0 0.00 0.00 0.00 88 1015.0
20260508103407 47 126 1.0 3.0 0.00 0.00 0.00 88 1015.2
20260508102904 46 121 1.0 3.0 0.00 0.00 0.00 91 1015.1
20260508102402 46 111 2.0 4.0 0.00 0.00 0.00 92 1015.0
20260508101859 45 100 2.0 3.0 0.00 0.00 0.00 93 1015.1
20260508101356 45 127 2.0 3.0 0.00 0.00 0.00 93 1015.2
20260508100854 45 114 0.0 3.0 0.00 0.00 0.00 94 1015.1
20260508100353 45 186 0.0 3.0 0.00 0.00 0.00 94 1015.1
20260508095848 44 127 2.0 3.0 0.00 0.00 0.00 95 1015.4
20260508095346 44 77 1.0 3.0 0.00 0.00 0.00 95 1015.4
20260508094842 44 124 0.0 3.0 0.00 0.00 0.00 95 1015.4
20260508094339 44 105 2.0 3.0 0.00 0.00 0.00 94 1015.4
20260508093836 44 103 1.0 3.0 0.00 0.00 0.00 94 1015.5
20260508093333 44 134 3.0 3.0 0.00 0.00 0.00 94 1015.6
20260508092831 44 67 1.0 2.0 0.00 0.00 0.00 94 1015.4
20260508092329 44 104 1.0 3.0 0.00 0.00 0.00 94 1015.6
20260508091827 44 94 2.0 2.0 0.00 0.00 0.00 94 1015.5
20260508091323 44 113 2.0 3.0 0.00 0.00 0.00 94 1015.6
20260508090821 44 109 1.0 3.0 0.00 0.00 0.00 94 1015.6
20260508090320 44 94 2.0 2.0 0.00 0.00 0.00 94 1015.7
20260508085814 44 106 2.0 2.0 0.00 0.00 0.00 94 1015.5
20260508085312 44 96 1.0 3.0 0.00 0.00 0.00 94 1015.5
20260508084808 44 114 2.0 3.0 0.00 0.00 0.00 94 1015.4
20260508084305 44 121 2.0 3.0 0.00 0.00 0.00 94 1015.5
20260508083803 44 95 1.0 2.0 0.00 0.00 0.00 94 1015.4
20260508083300 44 100 2.0 2.0 0.00 0.00 0.00 94 1015.2
20260508082759 44 101 2.0 3.0 0.00 0.00 0.00 94 1015.5
20260508082258 44 105 1.0 3.0 0.00 0.00 0.00 94 1015.6
20260508081755 44 97 2.0 2.0 0.00 0.00 0.00 94 1015.2
20260508081251 44 108 1.0 3.0 0.00 0.00 0.00 94 1015.6
20260508080748 44 105 2.0 3.0 0.00 0.00 0.00 94 1015.4
20260508080247 44 99 2.0 3.0 0.00 0.00 0.00 94 1015.5
20260508075742 44 105 2.0 3.0 0.00 0.00 0.00 94 1015.4
20260508075239 44 111 2.0 3.0 0.00 0.00 0.00 93 1015.5
20260508074737 44 111 1.0 2.0 0.00 0.00 0.00 93 1015.5
20260508074235 44 106 2.0 3.0 0.00 0.00 0.00 93 1015.8
20260508073731 44 115 1.0 3.0 0.00 0.00 0.00 93 1015.7
20260508073230 45 113 2.0 3.0 0.00 0.00 0.00 93 1015.5
20260508072725 45 97 2.0 3.0 0.00 0.00 0.00 93 1015.6
20260508072222 45 100 2.0 3.0 0.00 0.00 0.00 93 1015.7
20260508071719 45 104 1.0 3.0 0.00 0.00 0.00 92 1015.7
20260508071218 45 108 1.0 4.0 0.00 0.00 0.00 92 1015.9
20260508070715 45 89 2.0 3.0 0.00 0.00 0.00 92 1016.0
20260508070214 45 110 2.0 3.0 0.00 0.00 0.00 92 1015.9
20260508065710 45 112 1.0 3.0 0.00 0.00 0.00 92 1015.8
20260508065208 45 100 1.0 2.0 0.00 0.00 0.00 92 1016.0
20260508064706 45 101 2.0 3.0 0.00 0.00 0.00 92 1016.0
20260508064204 45 124 1.0 3.0 0.00 0.00 0.00 92 1016.1
20260508063701 45 106 2.0 3.0 0.00 0.00 0.00 92 1016.1
20260508063159 45 103 2.0 3.0 0.00 0.00 0.00 92 1016.4
20260508062656 46 103 2.0 3.0 0.00 0.00 0.00 92 1016.4
20260508062153 45 102 2.0 3.0 0.00 0.00 0.00 92 1016.5
20260508061649 46 116 2.0 3.0 0.00 0.00 0.00 92 1016.6
20260508061147 46 93 2.0 3.0 0.00 0.00 0.00 92 1016.7
20260508060644 46 116 2.0 2.0 0.00 0.00 0.00 91 1016.7
20260508060141 46 94 1.0 3.0 0.00 0.00 0.00 91 1016.6
20260508055636 46 97 1.0 2.0 0.00 0.00 0.00 91 1016.5
20260508055134 46 86 2.0 3.0 0.00 0.00 0.00 91 1016.5
20260508054630 46 118 2.0 2.0 0.00 0.00 0.00 91 1016.5
20260508054128 46 135 0.0 2.0 0.00 0.00 0.00 90 1016.6
20260508053624 46 96 1.0 2.0 0.00 0.00 0.00 90 1016.6
20260508053122 46 119 1.0 2.0 0.00 0.00 0.00 90 1016.6
20260508052619 47 104 2.0 2.0 0.00 0.00 0.00 89 1016.6
20260508052116 47 105 2.0 2.0 0.00 0.00 0.00 89 1016.6
20260508051612 47 104 2.0 2.0 0.00 0.00 0.00 89 1016.4
20260508051108 47 108 1.0 2.0 0.00 0.00 0.00 89 1016.6
20260508050604 47 104 1.0 2.0 0.00 0.00 0.00 89 1016.5
20260508045558 47 97 2.0 2.0 0.00 0.00 0.00 87 1016.8
20260508045056 47 106 1.0 2.0 0.00 0.00 0.00 87 1016.6
20260508044553 48 122 1.0 1.0 0.00 0.00 0.00 87 1016.6
20260508044049 48 106 1.0 2.0 0.00 0.00 0.00 86 1016.5
20260508043545 48 111 1.0 2.0 0.00 0.00 0.00 86 1016.6
20260508043043 48 129 1.0 2.0 0.00 0.00 0.00 85 1016.6
20260508042534 48 121 1.0 3.0 0.00 0.00 0.00 85 1016.8
20260508042031 48 116 1.0 2.0 0.00 0.00 0.00 84 1016.8
20260508041527 48 106 1.0 2.0 0.00 0.00 0.00 84 1016.6
20260508041024 49 105 0.0 1.0 0.00 0.00 0.00 83 1016.7
20260508040521 49 96 1.0 2.0 0.00 0.00 0.00 84 1016.9
20260508040019 49 119 3.0 3.0 0.00 0.00 0.00 84 1016.6
20260508035515 49 52 2.0 2.0 0.00 0.00 0.00 83 1016.6
20260508035012 50 124 1.0 2.0 0.00 0.00 0.00 81 1016.5
20260508034510 50 121 1.0 2.0 0.00 0.00 0.00 80 1016.7
20260508034006 50 111 1.0 2.0 0.00 0.00 0.00 81 1016.3
20260508033504 50 132 2.0 3.0 0.00 0.00 0.00 79 1016.6
20260508033002 50 108 1.0 2.0 0.00 0.00 0.00 78 1016.7
20260508032458 51 115 1.0 3.0 0.00 0.00 0.00 78 1016.8
20260508031956 51 104 2.0 3.0 0.00 0.00 0.00 77 1016.6
20260508031453 51 116 1.0 2.0 0.00 0.00 0.00 78 1016.8
20260508030948 50 105 2.0 3.0 0.00 0.00 0.00 79 1016.9
20260508030446 51 112 1.0 2.0 0.00 0.00 0.00 78 1016.6
20260508025943 51 111 2.0 2.0 0.00 0.00 0.00 77 1016.8
20260508025439 51 108 2.0 3.0 0.00 0.00 0.00 76 1016.8
20260508024937 52 107 1.0 2.0 0.00 0.00 0.00 76 1016.8
20260508024432 52 115 1.0 2.0 0.00 0.00 0.00 75 1016.7
20260508023929 52 110 1.0 2.0 0.00 0.00 0.00 75 1016.9
20260508023426 52 80 1.0 2.0 0.00 0.00 0.00 76 1016.6
20260508022923 52 118 1.0 2.0 0.00 0.00 0.00 77 1016.5
20260508022419 53 107 2.0 3.0 0.00 0.00 0.00 73 1016.8
20260508021916 53 100 1.0 2.0 0.00 0.00 0.00 72 1016.8
20260508021412 53 126 1.0 2.0 0.00 0.00 0.00 73 1016.4
20260508020908 53 103 2.0 3.0 0.00 0.00 0.00 72 1016.7
20260508020406 53 116 2.0 2.0 0.00 0.00 0.00 71 1016.5
20260508015903 54 110 2.0 3.0 0.00 0.00 0.00 71 1016.3
20260508015401 55 118 2.0 3.0 0.00 0.00 0.00 67 1016.6
20260508014857 55 104 1.0 2.0 0.00 0.00 0.00 67 1016.2
20260508014354 56 124 1.0 2.0 0.00 0.00 0.00 64 1016.3
20260508013849 57 110 2.0 2.0 0.00 0.00 0.00 64 1016.1
20260508013346 58 104 2.0 2.0 0.00 0.00 0.00 62 1016.3
20260508012843 58 97 1.0 2.0 0.00 0.00 0.00 60 1016.1
20260508012341 58 103 1.0 2.0 0.00 0.00 0.00 61 1016.1
20260508011838 59 118 1.0 2.0 0.00 0.00 0.00 60 1016.0
20260508011336 59 97 0.0 2.0 0.00 0.00 0.00 58 1016.0
20260508010833 60 120 1.0 2.0 0.00 0.00 0.00 58 1016.0
20260508010330 60 112 2.0 2.0 0.00 0.00 0.00 57 1015.9
20260508005827 61 129 0.0 2.0 0.00 0.00 0.00 54 1015.8
20260508005324 62 118 2.0 2.0 0.00 0.00 0.00 55 1015.6
20260508004820 63 129 0.0 2.0 0.00 0.00 0.00 52 1015.7
20260508004316 64 135 1.0 2.0 0.00 0.00 0.00 50 1015.8
20260508003813 64 106 0.0 2.0 0.00 0.00 0.00 48 1015.6
20260508003311 63 89 0.0 1.0 0.00 0.00 0.00 46 1015.6
20260508002807 64 147 2.0 5.0 0.00 0.00 0.00 45 1015.7
20260508002306 64 110 0.0 2.0 0.00 0.00 0.00 45 1015.7
20260508001800 65 22 0.0 1.0 0.00 0.00 0.00 42 1015.7
20260508001256 65 17 0.0 2.0 0.00 0.00 0.00 41 1015.5
20260508000752 65 246 0.0 3.0 0.00 0.00 0.00 40 1015.6
20260508000250 65 156 2.0 4.0 0.00 0.00 0.00 40 1015.4
20260507235745 66 203 0.0 3.0 0.00 0.00 0.00 40 1015.4
20260507235243 65 269 0.0 2.0 0.00 0.00 0.00 41 1015.5
20260507234740 65 23 1.0 6.0 0.00 0.00 0.00 39 1015.4
20260507234237 66 129 0.0 4.0 0.00 0.00 0.00 41 1015.7
20260507233733 66 227 2.0 4.0 0.00 0.00 0.00 41 1015.4
20260507233231 66 269 0.0 2.0 0.00 0.00 0.00 40 1015.7
20260507232728 66 126 3.0 8.0 0.00 0.00 0.00 39 1015.8
20260507232225 67 192 1.0 9.0 0.00 0.00 0.00 39 1015.7
20260507231722 67 69 1.0 6.0 0.00 0.00 0.00 40 1015.7
20260507231219 67 190 2.0 5.0 0.00 0.00 0.00 37 1015.9
20260507230715 68 204 3.0 7.0 0.00 0.00 0.00 36 1015.8
20260507230214 68 55 0.0 3.0 0.00 0.00 0.00 40 1015.9
20260507225712 68 157 8.0 9.0 0.00 0.00 0.00 37 1015.8
20260507225209 67 150 0.0 3.0 0.00 0.00 0.00 39 1015.7
20260507224705 67 274 3.0 8.0 0.00 0.00 0.00 39 1015.8
20260507224201 68 243 3.0 5.0 0.00 0.00 0.00 37 1016.1
20260507223657 68 131 6.0 9.0 0.00 0.00 0.00 37 1015.9
20260507223154 69 213 2.0 3.0 0.00 0.00 0.00 35 1015.9
20260507222651 68 302 2.0 5.0 0.00 0.00 0.00 37 1016.1
20260507222148 70 199 3.0 7.0 0.00 0.00 0.00 34 1016.0
20260507221644 70 287 2.0 5.0 0.00 0.00 0.00 34 1015.8
20260507221140 71 241 2.0 5.0 0.00 0.00 0.00 34 1016.2
20260507220638 70 259 0.0 10.0 0.00 0.00 0.00 34 1016.3
20260507220136 70 126 2.0 7.0 0.00 0.00 0.00 34 1016.1
20260507215631 71 245 3.0 8.0 0.00 0.00 0.00 35 1016.2
20260507215129 70 264 3.0 7.0 0.00 0.00 0.00 34 1016.2
20260507214626 71 306 3.0 6.0 0.00 0.00 0.00 34 1016.2
20260507214123 71 310 0.0 8.0 0.00 0.00 0.00 35 1016.1
20260507213618 71 215 4.0 5.0 0.00 0.00 0.00 32 1016.2
20260507213116 69 167 1.0 8.0 0.00 0.00 0.00 34 1016.2